• In Hungary
  • List of Countries
  • For 7 days
  • Water Temperature
  • Satellite Maps
  • Weather Map
  • News
  • Weather Widgets
  • user-avatar
    Login

    Hourly Weather Mahackala

    Today, 19 September, Wednesday

    Time Temperature Precipitation Wind Pressure Humidity
    00:00 +12°C° 0 mm 1 mps 677 mmHg 77%
    01:00 +11°C° 0 mm 1 mps 677 mmHg 77%
    02:00 +11°C° 0 mm 1 mps 677 mmHg 77%
    03:00 +11°C° 0 mm 1 mps 676 mmHg 77%
    04:00 +11°C° 0 mm 1 mps 676 mmHg 76%
    05:00 +11°C° 0 mm 1 mps 677 mmHg 75%
    06:00 +10°C° 0 mm 2 mps 677 mmHg 74%
    07:00 +13°C° 0 mm 2 mps 677 mmHg 66%
    08:00 +15°C° 0 mm 2 mps 677 mmHg 58%
    09:00 +18°C° 0 mm 2 mps 678 mmHg 50%
    10:00 +18°C° 0 mm 2 mps 678 mmHg 48%
    11:00 +19°C° 0 mm 3 mps 678 mmHg 46%
    12:00 +20°C° 0 mm 3 mps 678 mmHg 45%
    13:00 +20°C° 0 mm 3 mps 678 mmHg 45%
    14:00 +20°C° 0 mm 3 mps 678 mmHg 45%
    15:00 +20°C° 0 mm 3 mps 678 mmHg 45%
    16:00 +18°C° 0 mm 3 mps 677 mmHg 49%
    17:00 +16°C° 0 mm 3 mps 677 mmHg 53%
    18:00 +15°C° 0 mm 2 mps 677 mmHg 57%
    19:00 +14°C° 0 mm 2 mps 677 mmHg 58%
    20:00 +14°C° 0 mm 2 mps 677 mmHg 60%
    21:00 +13°C° 0 mm 2 mps 677 mmHg 62%
    22:00 +13°C° 0 mm 2 mps 677 mmHg 63%
    23:00 +11°C° 0 mm 3 mps 677 mmHg 64%

    Tomorrow, 20 September, Thursday

    Time Temperature Precipitation Wind Pressure Humidity
    00:00 +11°C° 0 mm 3 mps 677 mmHg 65%
    01:00 +11°C° 0 mm 3 mps 677 mmHg 64%
    02:00 +11°C° 0 mm 3 mps 677 mmHg 62%
    03:00 +11°C° 0 mm 3 mps 677 mmHg 61%
    04:00 +11°C° 0 mm 3 mps 677 mmHg 60%
    05:00 +10°C° 0 mm 3 mps 677 mmHg 58%
    06:00 +10°C° 0 mm 3 mps 677 mmHg 57%
    07:00 +14°C° 0 mm 2 mps 678 mmHg 52%
    08:00 +16°C° 0 mm 2 mps 679 mmHg 47%
    09:00 +18°C° 0 mm 2 mps 679 mmHg 41%
    10:00 +19°C° 0 mm 2 mps 679 mmHg 40%
    11:00 +20°C° 0 mm 2 mps 679 mmHg 39%
    12:00 +21°C° 0 mm 3 mps 679 mmHg 38%
    13:00 +21°C° 0 mm 3 mps 679 mmHg 40%
    14:00 +21°C° 0 mm 3 mps 679 mmHg 42%
    15:00 +21°C° 0 mm 3 mps 678 mmHg 43%
    16:00 +19°C° 0 mm 2 mps 678 mmHg 51%
    17:00 +17°C° 0 mm 2 mps 678 mmHg 59%
    18:00 +15°C° 0 mm 2 mps 677 mmHg 67%
    19:00 +15°C° 0 mm 2 mps 677 mmHg 68%
    20:00 +14°C° 0 mm 2 mps 677 mmHg 69%
    21:00 +14°C° 0 mm 2 mps 677 mmHg 70%
    22:00 +14°C° 0 mm 2 mps 677 mmHg 69%
    23:00 +14°C° 0 mm 2 mps 677 mmHg 69%

    Day after tomorrow, 21 September, Friday

    Time Temperature Precipitation Wind Pressure Humidity
    00:00 +13°C° 0 mm 2 mps 677 mmHg 68%
    01:00 +13°C° 0 mm 2 mps 677 mmHg 68%
    02:00 +13°C° 0 mm 2 mps 677 mmHg 68%
    03:00 +13°C° 0 mm 2 mps 676 mmHg 68%
    04:00 +13°C° 0 mm 2 mps 676 mmHg 67%
    05:00 +13°C° 0 mm 2 mps 676 mmHg 67%
    06:00 +13°C° 0 mm 2 mps 676 mmHg 67%
    07:00 +15°C° 0 mm 2 mps 677 mmHg 59%
    08:00 +19°C° 0 mm 1 mps 678 mmHg 52%
    09:00 +21°C° 0 mm 1 mps 678 mmHg 44%
    10:00 +21°C° 0 mm 2 mps 678 mmHg 43%
    11:00 +22°C° 0 mm 3 mps 678 mmHg 41%
    12:00 +24°C° 0 mm 3 mps 678 mmHg 39%
    13:00 +24°C° 0 mm 3 mps 678 mmHg 42%
    14:00 +22°C° 0 mm 3 mps 678 mmHg 44%
    15:00 +22°C° 0 mm 3 mps 678 mmHg 47%
    16:00 +20°C° 0 mm 3 mps 677 mmHg 56%
    17:00 +18°C° 0 mm 2 mps 677 mmHg 66%
    18:00 +16°C° 0 mm 1 mps 677 mmHg 75%
    19:00 +16°C° 0 mm 1 mps 677 mmHg 76%
    20:00 +15°C° 0 mm 1 mps 677 mmHg 78%
    21:00 +15°C° 0 mm 1 mps 677 mmHg 79%
    22:00 +15°C° 0 mm 1 mps 677 mmHg 79%
    23:00 +15°C° 0 mm 1 mps 677 mmHg 78%

    22 September, Saturday

    Time Temperature Precipitation Wind Pressure Humidity
    00:00 +14°C° 0 mm 1 mps 677 mmHg 77%
    01:00 +14°C° 0 mm 1 mps 677 mmHg 76%
    02:00 +14°C° 0 mm 1 mps 677 mmHg 76%
    03:00 +14°C° 0 mm 1 mps 677 mmHg 75%
    04:00 +14°C° 0 mm 1 mps 677 mmHg 74%
    05:00 +14°C° 0 mm 1 mps 677 mmHg 73%
    06:00 +14°C° 0 mm 1 mps 677 mmHg 72%
    07:00 +16°C° 0 mm 2 mps 678 mmHg 66%
    08:00 +18°C° 0 mm 2 mps 678 mmHg 59%
    09:00 +21°C° 0 mm 2 mps 679 mmHg 53%
    10:00 +21°C° 0 mm 3 mps 679 mmHg 52%
    11:00 +22°C° 0 mm 3 mps 679 mmHg 51%
    12:00 +23°C° 0 mm 4 mps 679 mmHg 50%
    13:00 +23°C° 0.2 mm 4 mps 678 mmHg 54%
    14:00 +22°C° 0.2 mm 4 mps 678 mmHg 57%
    15:00 +22°C° 0.2 mm 4 mps 677 mmHg 61%
    16:00 +20°C° 0.3 mm 4 mps 677 mmHg 69%
    17:00 +19°C° 0.3 mm 3 mps 677 mmHg 77%
    18:00 +17°C° 0.3 mm 3 mps 677 mmHg 85%
    19:00 +17°C° 0.1 mm 3 mps 677 mmHg 85%
    20:00 +17°C° 0.1 mm 3 mps 677 mmHg 86%
    21:00 +16°C° 0.1 mm 3 mps 677 mmHg 86%
    22:00 +16°C° 0.1 mm 3 mps 677 mmHg 85%
    23:00 +16°C° 0.1 mm 3 mps 677 mmHg 83%

    23 September, Sunday

    Time Temperature Precipitation Wind Pressure Humidity
    00:00 +14°C° 0.1 mm 3 mps 677 mmHg 82%
    01:00 +14°C° 0.1 mm 3 mps 676 mmHg 80%
    02:00 +14°C° 0.1 mm 3 mps 676 mmHg 79%
    03:00 +14°C° 0.1 mm 3 mps 676 mmHg 78%
    04:00 +14°C° 0 mm 3 mps 676 mmHg 77%
    05:00 +14°C° 0 mm 3 mps 676 mmHg 75%
    06:00 +14°C° 0 mm 3 mps 676 mmHg 74%
    07:00 +17°C° 0 mm 3 mps 676 mmHg 67%
    08:00 +19°C° 0 mm 4 mps 677 mmHg 59%
    09:00 +21°C° 0 mm 4 mps 677 mmHg 52%
    10:00 +22°C° 0 mm 4 mps 677 mmHg 50%
    11:00 +23°C° 0 mm 4 mps 677 mmHg 47%
    12:00 +25°C° 0 mm 5 mps 676 mmHg 45%
    13:00 +25°C° 0 mm 5 mps 676 mmHg 47%
    14:00 +25°C° 0 mm 5 mps 676 mmHg 49%
    15:00 +23°C° 0 mm 5 mps 675 mmHg 50%
    16:00 +21°C° 0.2 mm 4 mps 675 mmHg 58%
    17:00 +20°C° 0.2 mm 4 mps 674 mmHg 66%
    18:00 +18°C° 0.2 mm 3 mps 674 mmHg 74%
    19:00 +17°C° 0.1 mm 3 mps 674 mmHg 72%
    20:00 +17°C° 0.1 mm 3 mps 674 mmHg 71%
    21:00 +17°C° 0.1 mm 2 mps 674 mmHg 69%
    22:00 +17°C° 0 mm 2 mps 674 mmHg 67%
    23:00 +17°C° 0 mm 2 mps 673 mmHg 64%

    24 September, Monday

    Time Temperature Precipitation Wind Pressure Humidity
    00:00 +16°C° 0 mm 2 mps 673 mmHg 61%
    01:00 +16°C° 0.1 mm 2 mps 673 mmHg 60%
    02:00 +16°C° 0.1 mm 2 mps 673 mmHg 58%
    03:00 +16°C° 0.1 mm 2 mps 672 mmHg 57%
    04:00 +16°C° 0.4 mm 2 mps 672 mmHg 57%
    05:00 +16°C° 0.4 mm 2 mps 672 mmHg 58%
    06:00 +16°C° 0.4 mm 2 mps 673 mmHg 58%
    07:00 +19°C° 0.5 mm 1 mps 673 mmHg 56%
    08:00 +20°C° 0.5 mm 1 mps 673 mmHg 53%
    09:00 +21°C° 0.5 mm 1 mps 673 mmHg 51%
    10:00 +21°C° 0.2 mm 2 mps 673 mmHg 50%
    11:00 +23°C° 0.2 mm 2 mps 673 mmHg 49%
    12:00 +24°C° 0.2 mm 3 mps 674 mmHg 49%
    13:00 +24°C° 0.2 mm 3 mps 673 mmHg 51%
    14:00 +22°C° 0.2 mm 4 mps 673 mmHg 53%
    15:00 +22°C° 0.2 mm 4 mps 673 mmHg 56%
    16:00 +20°C° 0.3 mm 3 mps 673 mmHg 63%
    17:00 +19°C° 0.3 mm 3 mps 672 mmHg 71%
    18:00 +17°C° 0.3 mm 3 mps 672 mmHg 78%
    19:00 +17°C° 0 mm 3 mps 672 mmHg 77%
    20:00 +16°C° 0 mm 3 mps 672 mmHg 76%
    21:00 +16°C° 0 mm 3 mps 672 mmHg 75%
    22:00 +16°C° 0 mm 3 mps 672 mmHg 73%
    23:00 +14°C° 0 mm 3 mps 672 mmHg 70%
    Show more